Tracking 31027 objects as of 19-Jul-2025
HD Live streaming from Space Station
objects crossing your sky now

DELTA 1 DEB

Track DELTA 1 DEB now!
10-day predictions


NORAD ID: 7182
Int'l Code: 1973-086ET
Perigee: 1,097.6 km
Apogee: 1,622.7 km
Inclination: 102.5 °
Period: 112.8 minutes
Semi major axis: 7731 km
RCS: 0.0751 m2 (small)
Launch date: November 6, 1973
Source: United States (US)
Launch site: AIR FORCE WESTERN TEST RANGE (AFWTR)

Note: This is SATELLITE DEBRIS
Your satellite tracking list
NSIGHT-1
Track 1 satellite(s)




NASA's NSSDC Master Catalog

Two Line Element Set (TLE):
1  7182U 73086ET  25199.56331344  .00000336  00000-0  13960-2 0  9990
2  7182 102.5038 325.6199 0339646 164.3906 263.0109 12.77137129645707
Source of the keplerian elements: AFSPC